EZY678Y EGGW-EGAC

Flight info

Callsign EZY678Y
Flight time 0h 51m
Altitude 34000
Route OLNEY T420 TNT UL28 RODOL UM65 TENSO L603 BELOX DCT REMSI DCT NINEB M148 MAGEE
Aircraft A320/M-SDE3FGHIRWY/LB1

Departure

Time 2026-05-05 19:21
Airport London Luton Airport (EGGW)

Arrival

Time 2026-05-05 20:12
Airport George Best Belfast City Airport (EGAC)
Time Latitude Longitude Altitude Speed Heading
2026-05-05 18:50 51.88084 -0.37742 536 ft 0 kts 129°
2026-05-05 19:06 51.88086 -0.37747 536 ft 2 kts 129°
2026-05-05 19:06 51.88096 -0.37769 536 ft 2 kts 138°
2026-05-05 19:06 51.88110 -0.37783 536 ft 2 kts 172°
2026-05-05 19:07 51.88123 -0.37781 536 ft 0 kts 219°
2026-05-05 19:12 51.88120 -0.37786 536 ft 4 kts 220°
2026-05-05 19:12 51.88080 -0.37845 536 ft 8 kts 223°
2026-05-05 19:12 51.88044 -0.37899 536 ft 6 kts 221°
2026-05-05 19:12 51.88015 -0.37941 536 ft 8 kts 220°
2026-05-05 19:13 51.87915 -0.38015 537 ft 19 kts 182°
2026-05-05 19:13 51.87809 -0.37930 537 ft 17 kts 127°
2026-05-05 19:13 51.87754 -0.37756 536 ft 18 kts 115°
2026-05-05 19:13 51.87701 -0.37568 536 ft 19 kts 116°
2026-05-05 19:14 51.87604 -0.37454 536 ft 15 kts 169°
2026-05-05 19:14 51.87516 -0.37504 536 ft 13 kts 234°
2026-05-05 19:14 51.87488 -0.37635 536 ft 11 kts 255°
2026-05-05 19:14 51.87469 -0.37747 536 ft 9 kts 255°
2026-05-05 19:15 51.87454 -0.37840 537 ft 8 kts 255°
2026-05-05 19:15 51.87442 -0.37911 537 ft 6 kts 255°
2026-05-05 19:15 51.87436 -0.37945 537 ft 0 kts 255°
2026-05-05 19:16 51.87429 -0.37982 537 ft 5 kts 248°
2026-05-05 19:16 51.87411 -0.38022 537 ft 6 kts 227°
2026-05-05 19:16 51.87374 -0.38058 537 ft 1 kts 206°
2026-05-05 19:17 51.87367 -0.38063 537 ft 3 kts 206°
2026-05-05 19:17 51.87342 -0.38083 537 ft 9 kts 206°
2026-05-05 19:17 51.87260 -0.38081 538 ft 12 kts 124°
2026-05-05 19:17 51.87261 -0.38018 538 ft 0 kts 74°
2026-05-05 19:20 51.87265 -0.37996 538 ft 17 kts 74°
2026-05-05 19:21 51.87370 -0.37390 536 ft 92 kts 74°
2026-05-05 19:21 51.87599 -0.36063 539 ft 149 kts 71°
2026-05-05 19:21 51.87873 -0.34411 1161 ft 152 kts 73°
2026-05-05 19:21 51.88160 -0.32664 1731 ft 166 kts 72°
2026-05-05 19:22 51.88489 -0.30820 2104 ft 179 kts 71°
2026-05-05 19:22 51.88879 -0.28759 2348 ft 202 kts 69°
2026-05-05 19:22 51.89651 -0.26777 2600 ft 224 kts 36°
2026-05-05 19:22 51.91181 -0.26009 3055 ft 245 kts 357°
2026-05-05 19:23 51.92779 -0.27062 3820 ft 258 kts 321°
2026-05-05 19:23 51.93728 -0.29569 4707 ft 269 kts 285°
2026-05-05 19:23 51.93746 -0.32620 5614 ft 274 kts 263°
2026-05-05 19:23 51.93368 -0.35658 6523 ft 275 kts 259°
2026-05-05 19:24 51.93042 -0.38683 7327 ft 276 kts 271°
2026-05-05 19:24 51.93510 -0.41650 8101 ft 275 kts 301°
2026-05-05 19:24 51.94628 -0.44177 8939 ft 276 kts 311°
2026-05-05 19:24 51.95939 -0.46480 9781 ft 277 kts 315°
2026-05-05 19:25 51.97308 -0.48673 10344 ft 288 kts 316°
2026-05-05 19:25 51.98810 -0.51043 10536 ft 312 kts 315°
2026-05-05 19:25 52.00421 -0.53584 10781 ft 331 kts 316°
2026-05-05 19:25 52.02096 -0.56207 11405 ft 336 kts 316°
2026-05-05 19:26 52.03762 -0.58825 11826 ft 340 kts 315°
2026-05-05 19:26 52.05465 -0.61533 12150 ft 344 kts 315°
2026-05-05 19:26 52.07148 -0.64245 12875 ft 346 kts 314°
2026-05-05 19:26 52.08824 -0.66969 13546 ft 349 kts 314°
2026-05-05 19:27 52.10575 -0.69820 14178 ft 353 kts 314°
2026-05-05 19:27 52.12288 -0.72553 14709 ft 357 kts 317°
2026-05-05 19:27 52.14381 -0.75032 15259 ft 364 kts 328°
2026-05-05 19:27 52.16541 -0.77130 15835 ft 367 kts 327°
2026-05-05 19:28 52.18749 -0.79297 16381 ft 371 kts 327°
2026-05-05 19:28 52.20964 -0.81485 16944 ft 375 kts 327°
2026-05-05 19:28 52.23216 -0.83717 17457 ft 380 kts 327°
2026-05-05 19:28 52.25461 -0.85944 17975 ft 384 kts 327°
2026-05-05 19:29 52.27760 -0.88229 18466 ft 389 kts 327°
2026-05-05 19:29 52.30081 -0.90538 18995 ft 391 kts 327°
2026-05-05 19:29 52.32421 -0.92866 19549 ft 393 kts 326°
2026-05-05 19:29 52.34757 -0.95192 20084 ft 395 kts 327°
2026-05-05 19:30 52.37118 -0.97549 20603 ft 397 kts 326°
2026-05-05 19:30 52.39494 -0.99923 21120 ft 400 kts 327°
2026-05-05 19:30 52.41869 -1.02296 21632 ft 402 kts 326°
2026-05-05 19:30 52.44268 -1.04699 22116 ft 404 kts 326°
2026-05-05 19:31 52.46647 -1.07086 22575 ft 407 kts 326°
2026-05-05 19:31 52.49101 -1.09550 23037 ft 409 kts 326°
2026-05-05 19:31 52.51545 -1.12011 23475 ft 412 kts 326°
2026-05-05 19:31 52.53973 -1.14456 24109 ft 406 kts 326°
2026-05-05 19:32 52.56336 -1.16834 24815 ft 399 kts 326°
2026-05-05 19:32 52.58686 -1.19198 25552 ft 391 kts 326°
2026-05-05 19:32 52.60990 -1.21519 26079 ft 392 kts 325°
2026-05-05 19:32 52.63351 -1.23911 26201 ft 401 kts 325°
2026-05-05 19:33 52.65755 -1.26352 26336 ft 410 kts 325°
2026-05-05 19:33 52.68202 -1.28836 26465 ft 418 kts 325°
2026-05-05 19:33 52.69886 -1.30546 26554 ft 423 kts 325°
2026-05-05 19:33 52.73247 -1.33966 26736 ft 433 kts 325°
2026-05-05 19:34 52.74963 -1.35716 26903 ft 436 kts 325°
2026-05-05 19:34 52.77549 -1.38356 27194 ft 438 kts 325°
2026-05-05 19:34 52.80153 -1.41016 27493 ft 440 kts 325°
2026-05-05 19:35 52.85396 -1.46379 28049 ft 444 kts 325°
2026-05-05 19:35 52.88033 -1.49084 28324 ft 446 kts 325°
2026-05-05 19:35 52.90686 -1.51805 28583 ft 448 kts 326°
2026-05-05 19:35 52.93342 -1.54535 28891 ft 448 kts 326°
2026-05-05 19:36 52.95971 -1.57240 29168 ft 449 kts 326°
2026-05-05 19:36 52.98629 -1.59984 29430 ft 450 kts 326°
2026-05-05 19:36 53.01293 -1.62745 29689 ft 451 kts 326°
2026-05-05 19:36 53.03988 -1.65539 29944 ft 452 kts 326°
2026-05-05 19:37 53.06662 -1.68310 30236 ft 451 kts 327°
2026-05-05 19:37 53.09295 -1.71038 30485 ft 451 kts 326°
2026-05-05 19:37 53.11954 -1.73799 30749 ft 450 kts 326°
2026-05-05 19:37 53.14606 -1.76558 31033 ft 449 kts 326°
2026-05-05 19:38 53.17287 -1.79353 31302 ft 448 kts 326°
2026-05-05 19:38 53.19888 -1.82072 31560 ft 448 kts 327°
2026-05-05 19:38 53.22537 -1.84848 31797 ft 448 kts 327°
2026-05-05 19:38 53.25177 -1.87586 32099 ft 447 kts 327°
2026-05-05 19:39 53.27864 -1.90227 32381 ft 446 kts 328°
2026-05-05 19:39 53.30571 -1.92780 32650 ft 446 kts 329°
2026-05-05 19:39 53.33289 -1.95289 32925 ft 445 kts 329°
2026-05-05 19:39 53.36007 -1.97788 33175 ft 445 kts 329°
2026-05-05 19:40 53.38677 -2.00271 33455 ft 444 kts 329°
2026-05-05 19:40 53.41367 -2.02808 33741 ft 442 kts 328°
2026-05-05 19:40 53.44049 -2.05364 33986 ft 442 kts 328°
2026-05-05 19:41 53.49394 -2.10499 34042 ft 442 kts 328°
2026-05-05 19:41 53.54746 -2.15653 34052 ft 442 kts 326°
2026-05-05 19:42 53.59369 -2.22305 34053 ft 437 kts 307°
2026-05-05 19:42 53.62432 -2.31052 34044 ft 433 kts 290°
2026-05-05 19:43 53.64591 -2.40479 34045 ft 433 kts 290°
2026-05-05 19:43 53.66758 -2.49967 34039 ft 433 kts 290°
2026-05-05 19:44 53.68918 -2.59446 34036 ft 433 kts 289°
2026-05-05 19:44 53.71052 -2.68879 34059 ft 432 kts 289°
2026-05-05 19:45 53.73182 -2.78335 34063 ft 431 kts 289°
2026-05-05 19:45 53.73787 -2.81032 34066 ft 430 kts 289°
2026-05-05 19:46 53.75788 -2.89957 34062 ft 429 kts 289°
2026-05-05 19:46 53.77894 -2.99406 34074 ft 429 kts 289°
2026-05-05 19:47 53.79990 -3.08849 34067 ft 428 kts 289°
2026-05-05 19:47 53.82082 -3.18296 34065 ft 428 kts 289°
2026-05-05 19:48 53.84166 -3.27749 34049 ft 428 kts 289°
2026-05-05 19:48 53.86244 -3.37241 34047 ft 429 kts 289°
2026-05-05 19:49 53.88301 -3.46730 34045 ft 429 kts 288°
2026-05-05 19:49 53.90338 -3.56122 34045 ft 429 kts 288°
2026-05-05 19:50 53.91523 -3.61595 34044 ft 429 kts 288°
2026-05-05 19:50 53.93414 -3.70381 34046 ft 429 kts 289°
2026-05-05 19:51 53.95464 -3.79931 34052 ft 429 kts 289°
2026-05-05 19:51 53.98179 -3.88887 34049 ft 431 kts 298°
2026-05-05 19:52 54.01177 -3.97741 34044 ft 430 kts 298°
2026-05-05 19:52 54.04147 -4.06597 34043 ft 430 kts 298°
2026-05-05 19:53 54.07242 -4.15276 34040 ft 431 kts 303°
2026-05-05 19:53 54.10724 -4.23632 34050 ft 432 kts 303°
2026-05-05 19:54 54.14198 -4.32022 33278 ft 435 kts 303°
2026-05-05 19:54 54.15912 -4.36189 31974 ft 443 kts 303°
2026-05-05 19:54 54.17711 -4.40563 30434 ft 445 kts 303°
2026-05-05 19:54 54.19475 -4.44852 29525 ft 435 kts 303°
2026-05-05 19:55 54.21189 -4.49019 29059 ft 425 kts 303°
2026-05-05 19:55 54.21749 -4.50383 28851 ft 423 kts 303°
2026-05-05 19:55 54.23430 -4.54484 28232 ft 417 kts 303°
2026-05-05 19:55 54.25082 -4.58518 27653 ft 412 kts 303°
2026-05-05 19:56 54.26715 -4.62522 27078 ft 408 kts 303°
2026-05-05 19:56 54.28346 -4.66529 26599 ft 401 kts 303°
2026-05-05 19:56 54.29915 -4.70391 26072 ft 397 kts 303°
2026-05-05 19:56 54.31482 -4.74255 25534 ft 393 kts 303°
2026-05-05 19:57 54.33038 -4.78096 25000 ft 390 kts 303°
2026-05-05 19:57 54.34058 -4.80617 24650 ft 388 kts 303°
2026-05-05 19:57 54.36107 -4.85691 23961 ft 384 kts 303°
2026-05-05 19:57 54.37623 -4.89450 23437 ft 381 kts 303°
2026-05-05 19:58 54.39124 -4.93168 22941 ft 377 kts 303°
2026-05-05 19:58 54.40607 -4.96852 22481 ft 373 kts 303°
2026-05-05 19:58 54.42065 -5.00489 22055 ft 368 kts 303°
2026-05-05 19:58 54.43514 -5.04106 21621 ft 364 kts 303°
2026-05-05 19:59 54.44940 -5.07671 21188 ft 360 kts 303°
2026-05-05 19:59 54.46355 -5.11183 20759 ft 356 kts 303°
2026-05-05 19:59 54.47766 -5.14665 20323 ft 353 kts 303°
2026-05-05 19:59 54.49166 -5.18115 19889 ft 350 kts 303°
2026-05-05 20:00 54.50637 -5.21432 19447 ft 348 kts 311°
2026-05-05 20:00 54.52411 -5.24265 18976 ft 348 kts 320°
2026-05-05 20:00 54.54319 -5.26826 18495 ft 348 kts 320°
2026-05-05 20:00 54.56214 -5.29425 17943 ft 349 kts 316°
2026-05-05 20:01 54.57698 -5.32648 17372 ft 347 kts 296°
2026-05-05 20:01 54.58379 -5.36601 16817 ft 346 kts 275°
2026-05-05 20:01 54.58147 -5.40718 16257 ft 348 kts 254°
2026-05-05 20:01 54.57280 -5.44633 15724 ft 349 kts 249°
2026-05-05 20:02 54.56369 -5.48358 15207 ft 348 kts 249°
2026-05-05 20:02 54.55419 -5.52202 14688 ft 348 kts 249°
2026-05-05 20:02 54.54467 -5.56037 14172 ft 347 kts 249°
2026-05-05 20:02 54.53514 -5.59862 13641 ft 346 kts 249°
2026-05-05 20:03 54.52569 -5.63652 13079 ft 345 kts 249°
2026-05-05 20:03 54.51625 -5.67438 12528 ft 343 kts 249°
2026-05-05 20:03 54.50684 -5.71212 11978 ft 342 kts 249°
2026-05-05 20:03 54.49751 -5.74964 11443 ft 340 kts 249°
2026-05-05 20:04 54.48824 -5.78690 10913 ft 338 kts 248°
2026-05-05 20:04 54.47695 -5.82225 10402 ft 337 kts 239°
2026-05-05 20:04 54.46424 -5.85603 9875 ft 335 kts 239°
2026-05-05 20:04 54.45167 -5.88917 9313 ft 333 kts 239°
2026-05-05 20:05 54.43888 -5.92291 8746 ft 331 kts 239°
2026-05-05 20:05 54.42653 -5.95554 8209 ft 329 kts 239°
2026-05-05 20:05 54.41415 -5.98855 7664 ft 327 kts 239°
2026-05-05 20:05 54.40293 -6.02244 7138 ft 324 kts 251°
2026-05-05 20:06 54.39931 -6.06001 6599 ft 315 kts 275°
2026-05-05 20:06 54.40473 -6.09515 6053 ft 297 kts 300°
2026-05-05 20:06 54.41765 -6.12118 5510 ft 281 kts 326°
2026-05-05 20:06 54.42896 -6.13112 5153 ft 272 kts 344°
2026-05-05 20:07 54.44733 -6.13323 4607 ft 263 kts 12°
2026-05-05 20:07 54.46350 -6.12013 4055 ft 256 kts 40°
2026-05-05 20:07 54.47242 -6.09507 3613 ft 248 kts 79°
2026-05-05 20:07 54.47218 -6.06661 3475 ft 230 kts 91°
2026-05-05 20:08 54.47513 -6.04148 3298 ft 206 kts 52°
2026-05-05 20:08 54.48595 -6.02739 3080 ft 193 kts 22°
2026-05-05 20:08 54.49735 -6.01650 2885 ft 184 kts 32°
2026-05-05 20:08 54.50759 -6.00430 2613 ft 175 kts 33°
2026-05-05 20:09 54.51723 -5.99277 2360 ft 161 kts 32°
2026-05-05 20:09 54.52579 -5.98257 2163 ft 147 kts 32°
2026-05-05 20:09 54.53395 -5.97286 1956 ft 138 kts 31°
2026-05-05 20:09 54.54178 -5.96356 1780 ft 135 kts 31°
2026-05-05 20:10 54.54949 -5.95438 1587 ft 134 kts 31°
2026-05-05 20:10 54.55707 -5.94537 1406 ft 133 kts 31°
2026-05-05 20:10 54.56470 -5.93627 1210 ft 133 kts 31°
2026-05-05 20:10 54.57233 -5.92718 1024 ft 133 kts 30°
2026-05-05 20:11 54.57997 -5.91807 834 ft 134 kts 32°
2026-05-05 20:11 54.58773 -5.90888 649 ft 137 kts 33°
2026-05-05 20:11 54.59544 -5.89951 456 ft 137 kts 33°
2026-05-05 20:11 54.60324 -5.89028 286 ft 134 kts 32°
2026-05-05 20:12 54.61088 -5.88111 83 ft 133 kts 32°
2026-05-05 20:12 54.61814 -5.87244 19 ft 113 kts 34°
2026-05-05 20:12 54.62262 -5.86713 21 ft 21 kts 34°
2026-05-05 20:12 54.62364 -5.86585 22 ft 13 kts 36°
2026-05-05 20:13 54.62421 -5.86450 21 ft 15 kts 50°
2026-05-05 20:13 54.62462 -5.86493 20 ft 6 kts 232°
2026-05-05 20:13 54.62427 -5.86519 21 ft 12 kts 210°
2026-05-05 20:13 54.62233 -5.86752 21 ft 51 kts 215°
2026-05-05 20:14 54.61943 -5.87100 18 ft 44 kts 213°
2026-05-05 20:14 54.61815 -5.87126 17 ft 17 kts 129°
2026-05-05 20:14 54.61757 -5.86998 21 ft 11 kts 147°
2026-05-05 20:14 54.61693 -5.87029 22 ft 9 kts 213°
2026-05-05 20:15 54.61645 -5.87088 21 ft 8 kts 215°
2026-05-05 20:15 54.61601 -5.87124 23 ft 6 kts 177°
2026-05-05 20:15 54.61564 -5.87103 22 ft 5 kts 160°
2026-05-05 20:15 54.61548 -5.87093 21 ft 0 kts 160°